GFSNGP_sfc_temp_057.txt.gz
Temp
45 46 46 45 46 50 49 56 55 63 64 72 77 79 82 84 78 79 81 83 84 85 85 85 85 84 85 87 86 88 84 85 83 83 83 83 82 82 82 82 83 83 83 83
40 47 47 43 48 50 53 54 55 58 60 71 74 73 73 71 71 74 76 79 83 85 86 85 86 83 84 84 85 86 83 83 83 82 82 81 81 81 81 81 82 82 82 82
37 46 46 42 49 53 56 55 58 56 66 65 67 66 66 67 68 69 71 74 76 80 86 86 87 84 83 83 85 83 82 83 82 81 80 80 81 81 80 81 81 80 81 82
36 41 32 54 61 63 55 53 55 56 57 62 68 67 69 69 67 67 69 71 73 78 81 88 91 91 87 86 82 82 81 81 82 81 80 81 80 80 80 81 81 81 81 82
34 35 42 51 51 53 53 49 54 52 56 59 64 70 70 68 68 68 69 71 74 77 79 85 89 89 85 84 83 82 81 81 81 82 81 81 80 80 81 80 80 81 82 81
36 29 33 38 47 53 56 47 54 54 55 57 68 65 64 64 65 66 70 71 72 79 82 88 88 90 85 83 83 81 82 82 82 82 81 80 80 80 81 82 82 84 82 82
34 30 38 41 44 52 40 46 53 55 55 57 58 60 62 63 62 67 68 70 77 81 86 86 88 87 82 83 82 84 85 84 82 82 81 82 81 82 81 81 83 81 82 83
34 30 29 43 43 43 49 55 52 54 57 56 59 60 60 61 62 64 66 69 73 77 79 85 86 84 81 80 84 84 84 83 82 82 84 84 81 81 81 81 80 80 80 82
36 35 42 45 43 49 55 53 51 52 57 59 57 56 59 59 61 63 64 66 71 73 72 76 81 84 81 81 82 82 82 82 81 82 82 84 81 80 81 81 83 82 83 84
34 40 42 45 48 53 55 55 53 54 55 57 55 57 56 58 59 61 63 63 67 69 69 70 73 76 77 80 82 81 80 81 82 81 81 83 84 84 84 84 82 84 84 85
37 42 43 44 47 50 54 55 54 54 55 55 56 56 57 57 57 59 60 62 63 63 64 65 71 73 76 77 81 81 81 82 81 83 81 82 84 84 84 86 82 85 86 87
35 43 44 42 46 49 50 52 54 53 52 55 56 56 58 57 57 58 58 61 61 62 62 63 68 70 71 73 77 78 79 81 77 84 79 85 84 76 50 51 49 49 50 67
42 46 46 46 48 49 49 50 50 50 50 51 53 55 58 58 59 59 60 59 61 61 63 64 67 68 68 69 71 72 75 73 71 71 80 76 78 80 79 64 47 46 45 48
47 47 45 46 44 48 49 50 51 50 50 50 51 53 56 58 60 60 59 60 63 64 64 64 66 66 66 68 68 68 73 59 71 71 80 81 77 75 78 80 80 79 51 49
48 48 47 48 48 48 49 49 47 46 47 47 49 50 53 54 58 60 62 63 64 63 62 62 62 62 64 66 66 68 73 79 79 81 81 78 80 79 82 81 81 82 71 57
50 49 49 47 46 46 46 46 45 44 45 45 46 51 52 54 58 60 61 61 58 55 59 58 59 61 61 62 65 69 71 64 67 79 82 83 82 78 74 74 76 79 80 79
46 44 45 45 45 45 45 46 45 45 45 45 45 48 52 56 53 52 53 56 57 57 56 57 57 61 61 63 64 67 68 71 65 79 82 83 83 80 77 73 71 73 79 73
50 50 50 49 48 46 47 47 46 46 45 46 46 47 46 46 47 48 49 51 52 53 53 54 57 59 60 62 62 62 65 67 73 77 80 80 81 82 80 76 75 73 66 63
52 51 51 51 50 49 48 48 49 48 47 47 46 44 45 46 46 48 48 47 47 47 48 52 54 58 60 62 59 61 63 63 71 75 78 70 77 80 79 78 74 74 69 68
53 52 52 52 53 52 50 52 52 51 50 47 46 44 44 46 46 46 48 45 45 47 50 51 52 54 57 60 59 64 62 62 69 75 77 78 79 77 76 63 73 72 70 70
54 54 53 53 53 53 53 53 53 51 52 52 49 45 44 45 47 46 45 44 46 49 50 51 51 52 54 55 58 57 56 55 54 57 62 66 65 66 65 63 61 60 59 60
55 55 55 56 55 54 55 54 54 54 53 52 52 51 50 48 46 45 45 44 47 49 49 48 49 51 50 51 50 49 49 48 48 47 46 46 47 47 47 50 50 51 51 51
57 56 56 57 55 54 56 55 55 55 54 53 52 52 51 53 53 50 45 47 47 48 48 48 50 50 49 47 47 46 46 45 45 44 44 43 43 42 41 41 42 42 42 42
56 55 55 56 57 56 53 54 55 55 54 55 55 55 56 56 56 57 55 51 49 48 47 48 48 49 48 46 46 45 45 44 44 44 43 43 43 43 42 42 41 41 41 40
55 55 55 56 55 55 53 54 55 56 55 56 57 57 58 59 57 58 59 56 50 50 48 49 49 48 46 45 44 45 45 44 44 44 43 43 42 42 41 41 40 40 40 39
55 57 56 53 54 56 57 57 55 55 56 56 58 59 59 60 60 60 59 56 56 52 51 50 50 50 48 47 45 44 43 43 44 43 43 43 42 42 41 41 40 40 40 39
56 50 57 57 56 56 56 54 55 55 54 55 56 57 58 60 58 58 54 59 58 57 56 55 54 52 53 52 51 49 48 46 43 45 44 43 43 42 41 41 41 40 40 39

GFSNGP_sfc_temp_060.txt.gz
Temp
54 56 56 55 55 57 57 62 60 69 70 78 82 85 87 91 90 88 89 93 94 95 95 94 93 93 92 94 95 97 94 92 91 90 90 90 89 88 88 88 88 88 88 89
48 54 56 53 58 58 59 60 62 65 68 84 86 84 82 85 82 84 87 88 91 94 94 94 93 92 92 92 94 95 93 92 91 88 88 88 88 87 87 87 87 87 88 88
43 54 54 48 56 59 61 63 64 61 70 80 80 79 79 78 80 81 82 84 86 89 93 95 95 94 92 92 94 92 90 90 90 88 86 86 87 86 86 86 87 86 87 88
44 49 38 58 70 69 65 66 69 69 73 77 75 80 77 77 76 77 79 81 83 87 89 92 99 100 95 94 91 90 89 88 88 87 86 86 86 86 85 86 86 86 86 87
40 44 52 56 50 50 47 61 68 66 70 72 74 77 77 75 75 75 77 79 82 86 88 88 91 96 95 93 91 89 88 87 88 88 86 86 85 85 86 86 86 86 87 86
41 32 34 42 48 53 57 52 65 64 66 67 72 66 75 70 71 74 77 78 80 83 86 88 88 94 96 92 90 88 88 88 88 88 87 86 86 85 86 86 87 90 89 88
38 35 44 52 49 50 40 48 61 63 64 66 70 69 67 65 68 72 75 77 79 84 87 88 91 92 94 91 90 90 90 90 89 88 87 87 86 86 86 86 88 86 87 88
39 36 32 51 50 38 43 53 57 58 62 62 66 64 63 62 65 67 68 74 75 81 87 93 94 92 92 87 91 90 90 89 88 87 89 89 86 85 86 85 84 85 84 87
42 44 47 48 46 50 50 50 54 54 59 61 63 61 59 60 63 64 66 68 70 72 76 87 91 92 87 87 89 88 88 87 86 86 86 89 85 84 86 85 88 86 88 88
36 43 43 46 49 50 51 52 56 57 57 58 59 60 59 60 61 61 61 62 65 69 69 71 78 84 88 88 88 87 86 85 86 85 85 88 90 89 89 90 88 91 91 92
35 40 43 45 47 49 50 53 54 57 56 56 57 58 58 57 58 58 59 61 61 62 65 68 71 73 77 84 86 86 86 87 87 89 86 87 89 90 92 93 87 93 94 95
34 41 42 42 46 49 48 49 50 50 51 53 54 54 56 56 57 57 57 60 60 61 61 63 67 70 71 74 83 86 86 88 89 91 89 91 90 86 51 54 51 52 53 68
40 45 44 45 47 48 47 50 51 50 50 50 53 53 56 56 58 58 59 59 60 60 61 62 63 65 69 72 76 81 79 82 85 85 89 88 86 87 85 70 49 47 49 50
49 47 43 44 43 47 48 50 51 50 50 51 51 53 55 56 59 59 59 60 61 61 61 62 63 63 67 69 74 75 71 60 77 81 86 79 76 79 83 83 81 88 54 55
51 51 47 47 47 47 50 51 48 47 47 48 50 53 55 55 57 59 60 61 63 61 61 62 62 62 66 70 72 74 76 73 77 86 85 80 81 74 77 77 82 82 84 61
56 54 52 48 48 47 47 49 47 46 47 46 47 49 54 54 55 56 58 59 55 53 56 57 59 63 64 68 72 76 78 65 68 75 72 77 78 78 80 79 78 82 89 89
53 51 51 49 47 49 46 47 47 46 47 46 46 49 49 51 50 50 53 55 54 53 54 54 55 62 68 69 68 76 79 81 67 85 88 86 86 81 85 82 79 80 84 79
57 57 57 55 52 50 50 49 47 47 45 46 47 48 47 47 47 47 49 51 52 52 52 54 56 58 65 68 64 71 77 79 82 86 89 89 89 90 89 88 88 87 87 76
59 58 58 57 57 56 54 53 52 50 48 47 46 45 47 48 48 49 49 48 48 47 50 55 56 58 58 60 61 71 76 74 77 82 84 77 85 87 90 90 89 88 89 83
59 59 59 59 59 58 57 58 57 54 54 55 51 47 45 46 47 49 49 47 47 48 52 54 56 56 57 59 59 68 66 70 69 75 80 83 87 86 87 71 78 84 85 83
61 60 59 59 59 60 60 60 59 57 56 54 54 53 51 50 49 49 46 45 48 50 51 52 52 53 53 55 55 54 57 57 55 54 57 62 68 67 66 66 63 63 67 71
62 62 60 60 60 60 60 61 60 59 59 57 56 55 55 52 51 49 47 45 49 51 50 50 50 50 50 50 49 48 47 47 47 46 45 45 45 45 45 47 47 48 49 52
63 62 62 61 60 60 62 62 61 60 58 58 58 58 56 56 55 52 47 47 48 50 52 50 49 49 49 47 46 46 45 45 44 44 44 44 43 42 41 41 41 41 41 41
62 62 61 63 62 61 58 59 61 61 60 61 61 61 61 58 56 57 58 51 49 49 49 48 49 48 48 46 45 44 44 44 43 43 43 42 42 42 41 41 40 40 40 40
61 62 61 62 61 61 60 61 62 62 61 62 62 63 63 62 57 57 56 56 51 52 52 50 50 51 54 51 48 45 44 43 43 43 43 42 42 42 41 41 40 40 40 40
62 61 62 60 61 63 64 63 61 62 63 63 63 64 66 63 61 59 59 57 59 55 59 59 59 58 58 57 56 51 47 45 45 44 43 43 42 42 41 41 40 40 40 40
62 50 62 60 63 63 62 61 61 61 60 62 59 64 65 63 62 59 56 59 60 61 62 63 63 60 62 62 61 60 59 56 45 48 46 44 43 43 42 42 41 41 41 40

GFSNGP_sfc_temp_063.txt.gz
Temp
60 62 62 61 62 67 66 68 62 71 72 80 86 88 90 93 94 95 94 97 100 102 101 99 98 96 96 97 98 98 95 95 92 91 91 91 90 90 90 90 89 89 89 90
49 56 61 57 61 63 64 67 67 67 68 83 84 84 91 89 91 88 91 94 96 99 100 100 98 97 96 96 98 97 94 94 93 90 89 89 89 89 88 88 89 88 89 89
43 54 57 51 59 62 64 68 68 63 71 80 80 80 82 88 86 86 89 91 92 94 98 101 100 98 97 95 97 95 94 93 92 90 88 88 89 88 87 87 89 87 88 89
40 49 36 58 71 70 66 69 73 72 74 78 79 81 79 84 82 83 85 87 88 92 94 96 103 104 100 98 93 93 92 93 91 90 88 88 88 87 87 88 87 87 87 88
36 42 51 58 58 56 57 61 74 73 75 79 81 83 80 83 80 80 82 84 86 90 92 92 95 99 100 98 94 93 92 91 92 91 89 88 87 87 88 88 87 88 89 88
44 36 35 53 56 63 62 55 66 76 74 75 77 69 76 76 77 80 82 83 84 86 89 91 91 95 97 98 95 91 93 92 92 91 90 88 87 87 88 89 89 91 90 90
42 38 47 59 60 62 44 47 55 63 63 70 70 69 71 74 74 76 78 79 79 81 86 88 91 93 91 95 95 95 94 94 92 91 89 89 88 88 88 88 89 87 89 90
42 39 35 58 59 50 52 56 58 61 63 60 65 67 68 71 71 72 73 75 76 75 77 88 94 93 90 88 95 94 93 92 90 89 92 92 87 87 87 87 85 86 86 89
44 46 55 54 51 57 58 55 53 58 59 60 61 64 65 66 69 69 70 72 71 69 72 73 80 93 89 89 93 92 91 89 89 89 89 90 87 86 87 86 89 87 89 89
40 53 47 45 51 51 51 52 55 60 60 58 58 61 58 60 64 67 69 69 67 65 65 65 69 75 77 92 93 91 88 88 89 88 87 89 91 90 89 90 89 92 91 92
38 42 42 43 46 47 49 52 53 55 55 54 56 56 56 56 58 64 64 67 64 62 62 63 64 66 71 75 83 89 88 89 89 89 87 88 90 92 92 93 89 93 95 96
34 40 40 42 46 47 47 49 50 52 51 54 54 53 55 55 57 59 61 62 60 60 61 62 62 63 64 67 69 78 83 88 91 92 89 90 91 86 53 60 52 53 52 69
39 45 44 44 46 47 46 48 51 50 50 50 53 54 55 54 56 58 59 60 59 60 61 61 61 61 62 64 66 72 79 83 92 88 93 92 92 90 87 67 52 50 52 52
50 48 41 43 42 46 47 49 50 49 50 51 51 55 56 55 57 57 57 58 59 58 58 59 59 59 62 62 64 66 71 63 82 86 89 93 91 91 93 89 87 88 59 56
52 51 47 47 47 45 47 47 47 46 47 48 51 54 55 53 53 54 56 57 58 56 55 57 57 58 62 63 63 66 67 69 69 77 81 84 84 82 85 90 88 83 73 59
56 56 53 49 47 46 45 45 44 45 46 46 47 49 51 51 52 53 54 55 52 52 53 55 56 58 60 64 62 64 67 64 66 77 77 78 82 83 85 85 82 82 76 75
54 52 53 50 49 49 46 47 45 44 46 46 47 48 49 51 49 49 51 53 53 53 54 55 55 59 61 64 63 63 67 70 68 76 73 78 80 76 77 81 89 80 80 67
57 57 58 56 52 52 54 50 51 48 46 46 47 46 46 47 47 48 50 52 52 53 54 56 57 60 61 60 61 65 74 71 73 74 75 81 82 79 75 76 83 86 82 69
59 56 56 57 58 56 55 56 56 55 52 49 47 46 46 47 48 48 49 49 49 48 51 55 58 60 56 56 58 67 69 71 76 79 79 72 83 89 90 89 88 91 92 89
62 60 59 58 61 60 58 58 58 57 55 54 54 51 47 47 47 48 50 47 48 48 52 54 57 55 56 55 56 60 58 57 61 65 66 73 75 75 85 71 77 76 79 86
64 63 61 59 61 62 62 61 59 57 59 57 52 50 51 51 48 47 46 45 49 52 52 52 52 52 52 52 52 52 53 52 51 49 56 55 57 60 63 62 64 65 67 66
64 63 63 61 63 61 64 64 62 60 59 58 58 57 54 53 51 48 47 45 48 50 52 51 51 50 49 50 49 47 46 46 46 46 45 45 45 44 44 45 47 49 49 49
63 65 64 62 62 62 64 64 63 62 60 60 59 58 58 58 55 53 47 48 50 50 53 53 52 52 51 48 46 47 46 44 44 43 43 43 43 42 42 41 41 41 41 41
64 64 64 65 65 62 60 62 65 64 63 64 64 63 60 56 56 59 57 52 51 53 55 54 54 53 53 55 53 47 45 44 44 43 43 42 42 42 42 41 41 41 40 40
64 63 63 64 63 65 64 64 65 65 64 64 65 63 62 64 58 60 58 58 51 56 59 51 53 55 58 58 58 56 52 48 45 44 44 42 42 41 41 41 40 40 40 41
63 60 63 63 64 66 65 65 63 64 64 63 66 66 64 65 62 61 61 59 62 57 61 63 64 65 65 63 61 60 59 57 54 49 47 46 45 44 42 41 41 41 41 41
63 55 61 60 68 66 65 63 63 62 63 61 63 65 66 65 63 61 57 62 63 63 66 65 66 63 65 65 64 62 62 60 52 59 56 51 49 47 47 46 44 43 42 42

GFSNGP_sfc_temp_069.txt.gz
Temp
48 53 55 53 54 55 51 53 44 53 56 64 66 68 70 72 73 71 72 74 71 70 70 71 72 72 74 89 88 87 83 82 81 81 82 81 81 79 81 80 82 80 76 77
43 51 53 51 55 56 56 57 57 57 57 64 71 70 70 70 72 67 69 75 73 75 73 71 73 72 73 84 89 89 85 82 83 82 82 81 80 80 79 80 79 81 81 80
34 44 44 40 50 54 55 59 58 52 59 66 66 68 66 68 67 67 66 70 71 71 71 70 71 73 70 70 84 88 86 84 83 82 81 81 81 80 79 79 81 79 79 80
33 35 28 45 56 58 56 59 55 56 61 61 61 66 66 69 66 64 66 67 71 70 70 70 69 69 70 71 71 76 83 84 83 82 81 81 81 80 80 80 80 81 80 80
31 31 41 48 54 50 49 48 55 52 54 57 61 64 59 63 68 68 67 68 69 72 71 72 72 71 70 72 70 70 78 83 83 83 81 81 80 81 81 81 80 81 81 80
34 27 27 41 55 59 58 40 53 53 53 54 56 47 52 62 66 67 68 68 68 69 69 69 69 69 69 67 68 69 77 82 83 83 82 81 81 82 82 82 82 81 81 82
34 32 39 50 56 59 39 37 52 53 51 53 51 54 58 63 62 64 66 67 68 66 64 66 67 65 65 67 70 74 79 81 83 84 83 82 82 83 83 82 82 81 81 82
34 30 28 49 51 40 44 47 49 51 50 50 55 59 61 60 60 62 62 65 65 62 63 63 65 62 62 63 66 70 71 78 81 83 85 83 82 82 82 82 80 80 80 80
36 37 43 46 45 49 49 45 48 47 51 52 54 54 59 58 59 61 61 63 62 60 60 61 62 62 61 62 64 66 68 73 76 83 84 86 82 81 80 81 80 80 79 79
34 44 39 44 45 46 47 46 49 51 51 53 51 55 55 57 56 59 60 60 64 60 57 57 59 60 62 62 63 64 66 71 79 80 82 85 84 83 82 81 80 80 80 80
35 40 39 43 43 44 45 48 48 50 50 52 52 53 55 55 53 55 56 58 58 57 55 56 57 58 61 62 61 62 64 70 79 84 79 83 84 82 83 84 81 82 82 82
32 39 38 39 43 45 43 44 46 47 48 51 52 50 53 52 52 56 57 58 56 58 57 54 55 56 59 59 59 60 61 69 77 84 80 82 82 72 53 55 57 58 63 76
40 44 43 44 44 46 43 44 46 47 48 48 50 51 52 52 52 53 56 55 55 55 55 53 53 56 58 59 61 59 59 63 68 71 77 79 79 80 71 61 52 48 50 59
47 46 42 44 42 46 46 45 46 47 48 48 49 50 52 52 52 51 51 53 54 53 53 52 52 53 56 58 58 58 59 59 64 69 72 73 77 77 77 70 69 68 53 53
47 50 47 47 47 47 48 45 43 43 45 46 47 48 50 49 48 49 51 52 53 52 51 51 52 52 56 56 55 56 57 59 62 65 70 68 74 77 76 73 72 69 61 57
50 50 50 46 48 47 47 46 43 43 44 45 46 46 48 49 49 49 49 50 48 47 47 50 50 53 55 54 54 55 57 59 61 65 68 69 70 70 73 73 73 67 67 66
46 43 44 46 48 48 47 47 46 44 44 44 45 46 46 47 47 46 47 48 49 47 48 48 50 52 54 53 53 56 57 59 59 60 63 63 64 67 68 68 69 69 69 66
53 52 53 51 50 50 49 48 47 46 45 46 46 46 45 44 44 46 46 47 47 47 47 49 51 52 52 51 52 52 54 55 57 56 57 60 60 60 64 66 67 67 68 60
56 55 55 55 52 51 51 49 48 48 47 47 46 44 45 44 44 46 46 45 45 44 45 48 51 50 49 52 51 50 50 52 51 52 53 54 56 56 55 57 59 64 67 66
56 56 54 57 54 52 52 52 50 50 49 47 47 46 44 44 44 44 45 44 45 46 47 47 47 48 48 50 50 46 47 46 48 46 48 48 48 50 51 50 51 51 54 56
55 53 53 53 55 55 53 53 52 50 50 50 47 45 45 44 45 45 43 43 46 48 48 49 47 46 49 48 47 46 45 44 43 43 43 43 43 43 44 45 46 48 46 46
54 52 54 54 54 54 53 53 54 53 53 51 49 48 48 46 46 46 46 45 48 52 50 47 48 50 48 50 47 45 44 43 42 42 41 41 41 40 40 40 41 41 41 42
51 52 56 55 54 53 57 53 54 55 52 52 50 49 49 49 49 47 43 49 50 51 52 50 52 54 52 46 46 46 45 43 41 41 41 40 40 40 39 39 39 40 40 39
52 52 54 56 55 54 51 56 53 55 52 52 52 52 51 49 49 51 52 51 51 51 51 52 52 53 54 50 48 47 46 45 44 43 42 42 41 40 40 39 39 40 40 39
50 50 52 52 53 52 55 55 54 52 52 52 52 53 54 53 51 53 54 55 53 51 52 53 54 54 53 53 49 48 46 46 46 45 44 44 42 41 40 40 40 40 40 40
48 48 48 53 54 53 55 54 52 50 50 49 49 53 55 54 55 55 54 56 56 55 56 55 53 53 53 54 53 52 49 46 45 44 44 44 44 43 42 41 42 41 41 40
50 47 52 51 50 55 53 52 53 52 52 51 48 50 53 53 55 55 54 56 56 56 56 57 57 55 55 55 55 53 52 49 47 46 45 43 43 42 42 43 41 41 41 42

GFSNGP_sfc_temp_072.txt.gz
Temp
39 47 48 47 48 51 45 44 38 46 47 54 58 62 64 66 67 67 68 68 69 68 69 70 70 70 73 79 80 81 80 79 79 79 79 79 79 79 77 75 78 77 77 77
38 47 46 44 49 50 51 51 50 50 47 56 59 63 62 63 64 64 65 68 67 68 70 70 72 71 72 72 73 80 80 79 79 79 79 78 78 79 78 77 77 76 75 78
26 41 42 36 44 48 49 51 47 41 46 53 53 57 56 59 62 62 64 64 64 66 67 67 69 70 69 69 71 72 78 80 80 79 78 78 78 77 77 77 79 78 78 76
27 33 25 41 50 53 50 49 50 49 51 53 53 56 58 60 60 61 63 63 64 65 66 68 68 69 69 70 71 70 72 80 79 80 79 79 79 77 78 77 77 78 77 79
27 27 36 44 49 49 45 42 50 47 50 52 55 57 54 59 61 62 62 64 64 66 65 65 65 65 67 70 71 70 70 70 75 77 79 79 78 78 78 78 77 78 79 77
29 24 25 38 47 53 50 35 49 49 47 47 50 43 46 56 60 62 63 64 63 64 65 65 62 63 65 66 67 68 69 68 71 74 76 78 79 79 80 80 79 79 79 80
29 28 34 41 45 50 34 35 46 48 47 46 42 47 52 57 57 61 64 64 64 64 63 63 64 62 61 62 63 64 66 67 69 71 81 82 81 76 81 80 80 79 79 80
28 24 25 43 46 37 41 43 44 45 46 46 47 50 54 55 55 59 60 62 63 61 60 62 63 62 59 59 61 64 65 65 67 70 77 83 81 79 78 80 78 78 78 78
34 36 41 44 43 46 45 39 41 44 48 50 47 49 50 52 52 54 58 59 61 60 59 59 60 58 57 60 61 61 62 64 65 68 73 83 81 81 79 80 79 78 78 78
32 39 40 43 44 42 45 45 44 46 48 50 46 48 48 50 52 51 54 57 59 57 57 57 57 58 57 59 60 59 61 62 65 67 72 76 79 82 81 80 79 79 78 77
35 37 41 43 43 43 45 46 46 48 48 48 49 48 48 47 48 50 51 55 56 53 55 55 56 55 57 59 59 59 60 61 63 68 71 75 78 76 81 81 80 80 80 80
28 36 39 40 44 46 44 44 45 44 45 48 49 48 50 49 49 50 50 55 56 56 56 53 52 54 55 57 58 58 58 61 61 63 67 78 76 68 53 56 57 58 60 74
36 41 40 42 44 46 44 45 46 45 46 45 48 50 50 49 50 51 53 53 50 53 50 50 50 50 54 55 57 55 55 58 60 61 66 72 79 74 71 61 52 51 53 56
43 43 40 42 41 46 46 48 47 46 46 46 47 48 50 50 51 52 51 49 52 53 51 49 49 50 53 53 52 53 55 56 59 61 63 68 72 75 73 71 71 68 52 57
43 46 44 45 45 46 47 46 46 44 44 44 47 47 49 48 48 48 50 51 52 50 48 48 48 49 50 52 52 52 55 57 59 61 64 66 69 72 71 71 71 70 61 55
45 46 47 45 44 45 46 47 45 44 44 44 44 45 47 47 47 47 47 49 46 44 46 46 47 48 49 50 50 52 55 56 57 58 61 63 66 69 71 71 71 68 67 68
41 41 42 42 43 44 44 46 45 45 44 44 44 45 46 46 46 46 46 47 47 47 47 47 47 49 48 48 50 51 52 54 55 55 55 59 60 64 67 71 71 68 68 65
48 48 46 46 44 45 46 46 45 45 45 45 46 45 44 44 44 44 45 46 47 47 47 48 50 49 47 48 47 49 50 51 51 51 51 50 54 56 59 64 68 68 64 62
51 50 51 53 49 47 47 45 45 46 46 46 45 44 44 44 44 44 45 45 45 44 45 47 50 49 47 50 48 47 47 48 48 47 48 48 46 50 52 52 58 64 63 62
54 51 52 52 51 49 48 48 47 46 47 46 46 44 43 44 44 44 45 44 44 45 47 48 46 46 46 48 48 45 45 44 45 45 45 45 44 43 45 48 49 49 50 52
51 52 51 50 49 51 50 49 47 46 48 47 45 44 43 45 45 45 43 43 46 48 48 49 47 45 46 45 44 44 43 42 42 42 42 42 42 42 41 42 43 46 46 44
48 51 49 50 49 48 49 50 50 48 47 48 47 46 44 44 45 45 45 44 46 50 47 47 47 49 47 47 43 43 42 42 41 41 40 40 39 39 39 40 40 41 41 41
47 50 53 49 49 48 48 48 48 49 48 46 46 46 46 46 45 44 43 48 48 49 47 47 50 49 48 44 44 43 43 42 41 40 40 40 39 39 39 38 39 39 39 39
45 49 48 48 48 46 46 46 47 47 48 48 49 48 48 46 47 49 49 50 51 50 49 48 49 50 47 45 44 43 43 44 42 41 40 40 40 39 39 39 39 39 39 39
46 47 47 48 45 46 45 45 45 44 46 46 48 49 49 49 48 51 51 52 51 51 52 53 53 51 46 45 44 43 43 44 44 43 42 42 40 40 40 40 39 39 39 39
44 43 43 45 48 44 45 44 43 42 44 43 45 47 48 49 51 49 52 53 53 53 52 51 51 51 50 48 46 46 45 44 44 44 43 43 42 41 40 41 41 41 40 39
43 44 46 46 47 50 48 46 43 43 44 43 43 46 47 48 48 49 50 52 52 52 52 51 51 51 50 51 50 49 47 46 45 45 44 43 42 42 41 39 38 39 39 40

GFSNGP_sfc_temp_075.txt.gz
Temp
36 44 44 43 44 46 41 40 37 43 43 45 50 54 56 60 63 63 64 64 65 65 66 69 70 70 71 73 74 78 77 76 77 77 77 77 77 77 73 72 75 74 74 73
35 43 43 40 45 47 47 47 45 45 43 49 54 56 55 56 60 59 61 64 64 64 66 68 69 69 70 71 72 77 78 77 75 76 77 76 76 76 77 73 73 71 73 76
27 38 40 34 41 45 44 45 46 40 42 50 50 53 53 54 56 56 58 62 62 63 63 66 66 66 66 68 70 71 77 77 77 72 72 75 76 75 75 76 76 75 73 74
26 31 24 38 46 50 45 47 47 47 48 50 50 55 57 56 55 56 58 59 61 62 62 63 64 64 65 69 68 70 71 74 77 76 74 75 75 75 75 76 76 76 76 76
26 25 33 41 45 43 40 40 47 44 47 48 50 52 55 56 57 57 59 60 60 63 63 62 61 62 63 68 69 69 69 69 72 75 76 75 74 76 76 76 76 76 77 77
26 22 25 36 43 48 45 34 46 46 44 44 46 42 46 52 54 57 61 61 62 62 63 63 61 61 62 62 64 63 66 68 70 72 74 75 77 75 74 75 76 77 76 77
26 24 32 40 43 47 33 33 43 45 43 42 39 42 46 52 54 57 59 61 62 63 62 60 61 60 58 60 59 62 64 65 67 69 70 70 75 76 77 75 74 75 76 77
30 22 24 44 44 36 38 39 41 42 42 42 43 47 49 50 53 54 54 59 61 60 59 61 60 59 56 56 59 61 62 64 65 66 68 71 73 77 76 75 74 75 75 76
32 30 41 41 39 41 41 37 39 40 42 43 44 46 48 48 48 52 53 55 59 57 58 58 59 55 54 56 58 59 59 60 62 64 66 68 71 75 74 73 76 75 76 75
32 35 37 40 41 41 40 40 45 47 45 47 45 47 47 48 50 48 50 52 54 54 55 53 56 56 55 56 57 57 58 59 60 62 64 68 71 73 73 74 74 77 76 76
30 35 37 40 41 44 44 46 46 48 47 46 46 45 46 47 47 48 49 50 52 53 52 54 54 54 55 54 57 56 56 56 59 61 63 64 68 72 73 75 74 77 78 79
28 35 35 36 41 43 43 45 46 45 45 46 46 45 48 48 49 47 49 50 50 53 53 52 53 53 53 54 54 54 52 55 56 59 60 62 66 72 54 57 56 55 56 67
36 38 39 40 42 44 44 45 45 46 46 44 46 46 47 47 49 51 49 49 53 53 52 49 48 50 53 53 54 52 51 53 56 57 60 61 63 67 73 64 51 49 50 53
40 40 38 40 39 43 46 47 48 47 48 46 45 46 47 47 48 48 48 50 52 53 49 48 47 48 50 50 50 51 52 52 55 58 59 61 63 66 70 71 70 71 56 53
41 43 42 41 42 42 46 46 45 44 45 45 46 45 45 46 47 48 50 51 51 49 47 46 45 46 48 48 50 49 51 53 56 56 57 58 61 66 68 72 72 72 66 56
43 43 43 41 43 43 42 43 43 45 45 44 44 44 45 46 46 46 47 48 46 45 44 43 47 49 47 46 46 48 50 53 54 54 55 56 59 61 64 69 71 71 69 70
42 41 41 41 42 43 42 43 44 45 43 44 43 45 45 45 45 45 45 47 47 46 47 47 46 49 46 46 46 48 48 50 53 52 53 52 53 56 57 61 67 70 70 68
46 46 48 46 44 43 43 44 44 46 45 46 46 45 44 43 43 44 45 46 46 46 47 48 49 50 48 47 48 47 48 48 50 49 49 49 48 50 53 53 55 66 65 60
50 48 50 49 47 45 44 44 44 45 46 46 45 44 44 44 44 44 45 44 44 44 45 47 50 48 47 47 49 45 46 46 47 47 46 47 46 46 46 50 49 52 57 58
50 50 50 49 49 47 46 46 46 44 47 46 45 44 43 43 44 44 44 43 44 44 47 47 46 45 46 46 47 44 44 44 43 43 44 44 44 44 43 43 46 46 46 47
48 49 49 48 47 48 48 46 49 43 47 48 44 43 43 44 45 45 43 42 45 47 47 48 46 45 46 45 44 43 42 42 41 41 41 40 41 41 43 42 42 42 43 44
46 47 47 48 47 46 48 49 46 45 44 46 45 44 43 43 44 44 45 44 46 49 46 45 46 48 46 46 43 43 41 41 40 40 39 39 39 39 39 40 41 40 40 40
45 46 47 48 47 46 46 44 45 46 45 44 45 44 43 44 44 43 43 47 46 48 46 45 49 49 47 43 42 42 42 41 40 39 39 39 39 39 39 39 39 39 39 39
43 43 44 45 45 44 43 44 44 45 45 45 45 45 44 44 46 48 49 50 50 49 46 47 47 48 46 43 42 41 41 41 40 40 40 40 39 39 39 39 38 39 39 39
42 43 44 44 45 43 45 43 43 43 43 44 44 45 46 46 46 49 49 50 50 50 48 50 49 48 44 43 43 42 41 41 41 39 39 39 39 39 38 38 38 38 39 38
41 40 41 42 44 45 42 43 42 42 41 41 42 46 46 46 47 48 49 50 50 50 50 50 48 46 46 46 44 44 43 43 42 41 40 40 40 40 39 38 39 39 39 39
43 43 41 42 41 43 44 43 42 41 42 41 41 45 44 48 48 47 48 49 50 49 48 48 48 48 46 46 46 45 44 43 42 42 42 41 40 40 40 40 39 39 39 39